Location: Meanaryar
(48.4161°N, 4.7315°W)
Time: 17:16:33
(UTC+00:00)

IGS 5A - Pass Details

Date: 18 September 2020
Orbit: 583 x 588 km, 97.6° (Epoch: 09 October)

Event Time Altitude Azimuth Distance (km) Brightness Sun altitude
Exits shadow 21:13:36 43° 356° (N) 838 4.4 -26.9°
Drops below altitude 10° 21:16:26 10° 349° (N) 1,918 6.7 -27.3°
Sets 21:18:36 0° 349° (NNW) 2,823 7.7 -27.5°
